TimePST,TemperatureF,Dew PointF,Humidity,Sea Level PressureIn,VisibilityMPH,Wind Direction,Wind SpeedMPH,Gust SpeedMPH,PrecipitationIn,Events,Conditions,WindDirDegrees,DateUTC
12:53 AM,46.0,37.0,71,30.04,10.0,Calm,Calm,-,N/A,,Clear,0,2013-01-08 08:53:00
1:53 AM,46.0,36.0,68,30.03,10.0,East,3.5,-,N/A,,Clear,100,2013-01-08 09:53:00
2:53 AM,44.1,35.1,71,30.02,10.0,Calm,Calm,-,N/A,,Clear,0,2013-01-08 10:53:00
4:53 AM,43.0,35.1,74,30.03,10.0,ENE,4.6,-,N/A,,Clear,70,2013-01-08 12:53:00
6:53 AM,44.1,32.0,63,30.07,10.0,Calm,Calm,-,N/A,,Clear,0,2013-01-08 14:53:00
7:53 AM,46.9,34.0,61,30.09,10.0,Calm,Calm,-,N/A,,Clear,0,2013-01-08 15:53:00
8:53 AM,55.0,39.9,57,30.10,10.0,Calm,Calm,-,N/A,,Clear,0,2013-01-08 16:53:00
9:53 AM,60.1,45.0,57,30.11,10.0,Calm,Calm,-,N/A,,Clear,0,2013-01-08 17:53:00
10:53 AM,66.0,46.0,48,30.08,10.0,Calm,Calm,-,N/A,,Clear,0,2013-01-08 18:53:00
11:53 AM,68.0,45.0,43,30.05,10.0,SW,4.6,-,N/A,,Clear,230,2013-01-08 19:53:00
12:53 PM,71.1,46.0,41,30.04,10.0,Variable,4.6,-,N/A,,Clear,0,2013-01-08 20:53:00
1:53 PM,70.0,46.9,44,30.03,10.0,Variable,3.5,-,N/A,,Clear,0,2013-01-08 21:53:00
2:53 PM,70.0,50.0,49,30.04,10.0,WSW,3.5,-,N/A,,Clear,240,2013-01-08 22:53:00
3:53 PM,68.0,50.0,52,30.05,10.0,SW,3.5,-,N/A,,Clear,220,2013-01-08 23:53:00
4:53 PM,62.1,50.0,65,30.07,10.0,SSW,4.6,-,N/A,,Clear,210,2013-01-09 00:53:00
5:53 PM,60.1,51.1,72,30.08,10.0,Calm,Calm,-,N/A,,Clear,0,2013-01-09 01:53:00
6:53 PM,59.0,51.1,75,30.09,10.0,Calm,Calm,-,N/A,,Clear,0,2013-01-09 02:53:00
7:53 PM,55.9,48.0,75,30.08,10.0,Calm,Calm,-,N/A,,Clear,0,2013-01-09 03:53:00
8:53 PM,54.0,46.9,77,30.09,10.0,ESE,3.5,-,N/A,,Clear,110,2013-01-09 04:53:00
9:53 PM,52.0,45.0,77,30.09,10.0,Calm,Calm,-,N/A,,Clear,0,2013-01-09 05:53:00
10:53 PM,52.0,46.0,80,30.10,10.0,Calm,Calm,-,N/A,,Clear,0,2013-01-09 06:53:00
11:53 PM,51.1,45.0,80,30.09,10.0,Calm,Calm,-,N/A,,Clear,0,2013-01-09 07:53:00